SCP
0 0 0 0 0 0 0 0 0 0 0 0 0 0 0 0 0 0 0 0 0 0 0 0 0 0 0 0 0 0 0 0 0 0 0 0 0 0 0 0 0 0 0
0 0 0 0 0 0 0 0 0 0 0 0 0 0 0 0 0 0 0 0 0 0 0 0 0 0 0 0 0 0 0 0 0 0 0 0 0 0 0 0 0 0 0
0 0 0 0 0 0 0 0 0 0 0 0 0 0 0 0 0 0 0 0 0 0 0 0 0 0 0 0 0 0 0 0 0 0 0 0 0 0 0 0 0 0 0
0 0 0 0 0 0 0 0 0 0 0 0 0 0 0 0 0 0 0 0 0 0 0 0 0 0 0 0 0 0 0 0 0 0 0 0 0 0 0 0 0 0 0
0 0 0 0 0 0 0 0 0 0 0 0 0 0 0 0 0 0 0 0 0 0 0 0 0 0 0 0 0 0 0 0 0 0 0 0 0 0 0 0 0 0 0
0 0 0 0 0 0 0 0 0 0 0 0 0 0 0 0 0 0 0 0 0 0 0 0 0 0 0 0 0 0 0 0 0 0 0 0 0 0 0 0 0 0 0
0 0 0 0 0 0 0 0 0 0 0 0 0 0 0 0 0 0 0 0 0 0 0 0 0 0 0 0 0 0 0 0 0 0 0 0 0 0 0 0 0 0 0
0 0 0 0 0 0 0 0 0 0 0 0 0 0 0 0 0 0 0 0 0 0 0 0 0 0 0 0 0 0 0 0 0 0 0 0 0 0 0 0 0 0 0
0 0 0 0 0 0 0 0 0 0 0 0 0 0 0 0 0 0 0 0 0 0 0 0 0 0 0 0 0 0 0 0 0 0 0 0 0 0 0 0 0 0 0
0 0 0 0 0 0 0 0 0 0 0 0 0 0 0 0 0 0 0 0 0 0 0 0 0 0 0 0 0 0 0 0 0 0 0 0 0 0 0 0 0 0 0
0 0 0 0 0 0 0 0 0 0 0 0 0 0 0 0 0 0 0 0 0 0 0 0 0 0 0 0 0 0 0 0 0 0 0 0 0 0 0 0 0 0 0
0 0 0 0 0 0 0 0 0 0 0 0 0 0 0 0 0 0 0 0 0 0 0 0 0 0 0 0 0 0 0 0 0 0 0 0 0 0 0 0 0 0 0
0 0 0 0 0 0 0 0 0 0 0 0 0 0 0 0 0 0 0 0 0 0 0 0 0 0 0 0 0 0 0 0 0 0 0 0 0 0 0 0 0 0 0
0 0 0 0 0 0 0 0 0 0 0 0 0 0 0 0 0 0 0 0 0 0 0 0 0 0 0 0 0 0 0 0 0 0 0 0 0 0 0 0 0 0 0
0 0 0 0 0 0 0 0 0 0 0 0 0 0 0 0 0 0 0 0 0 0 0 0 0 0 0 0 0 0 0 0 0 0 0 0 0 0 0 0 0 0 0
0 0 0 0 0 0 0 0 0 0 0 0 0 0 0 0 0 0 0 0 0 0 0 0 0 0 0 0 0 0 0 0 0 0 0 0 0 0 0 0 0 0 0
0 0 0 0 0 0 0 0 0 0 0 0 0 0 0 0 0 0 0 0 0 0 0 0 0 0 0 0 0 0 0 0 0 0 0 0 0 0 0 0 0 0 0
0 0 0 0 0 0 0 0 0 0 0 0 0 0 0 0 0 0 0 0 0 0 0 0 0 0 0 0 0 0 0 0 0 0 0 0 0 0 0 0 0 0 0
0 0 0 0 0 0 0 0 0 0 0 0 0 0 0 0 0 0 0 0 0 0 0 0 0 0 0 0 0 0 0 0 0 0 0 0 0 0 0 0 0 0 0
0 0 0 0 0 0 0 0 0 0 0 0 0 0 0 0 0 0 0 0 0 0 0 0 0 0 0 0 0 0 0 0 0 0 0 0 0 0 0 0 0 0 0
0 0 0 0 0 0 0 0 0 0 0 0 0 0 0 0 0 0 0 0 0 0 0 0 0 0 0 0 0 0 0 0 0 0 0 0 0 0 0 0 0 0 0
0 0 0 0 0 0 0 0 0 0 0 0 0 0 0 0 0 0 0 0 0 0 0 0 0 0 0 0 0 0 0 0 0 0 0 0 0 0 0 0 0 0 0
0 0 0 0 0 0 0 0 0 0 0 0 0 0 0 0 0 0 0 0 0 0 0 0 0 0 0 0 0 0 0 0 0 0 0 0 0 0 0 0 0 0 0
0 0 0 0 0 0 0 0 0 0 0 0 0 0 0 0 0 0 0 0 0 0 0 0 0 0 0 0 0 0 0 0 0 0 0 0 0 0 0 0 0 0 0
0 0 0 0 0 0 0 0 0 0 0 0 0 0 0 0 0 0 0 0 0 0 0 0 0 0 0 0 0 0 0 0 0 0 0 0 0 0 0 0 0 0 0
0 0 0 0 0 0 0 0 0 0 0 0 0 0 0 0 0 0 0 0 0 0 0 0 0 0 0 0 0 0 0 0 0 0 0 0 0 0 0 0 0 0 0
Wind_Speed
1 1 2 2 3 4 4 5 5 6 6 6 6 6 6 6 6 6 6 6 6 6 6 7 7 7 7 7 7 7 7 7 7 7 7 8 8 8 7 6 5 6 9
1 1 3 3 4 4 4 5 5 5 5 5 5 5 6 6 6 6 6 6 6 6 6 6 7 7 7 7 8 7 7 7 7 7 6 7 7 7 6 5 5 5 7
2 2 4 4 4 4 4 4 5 5 5 5 5 4 5 5 5 6 6 5 6 5 6 6 6 6 7 7 7 7 7 7 7 5 3 4 6 6 6 6 6 6 6
3 3 3 5 4 5 5 5 5 5 5 5 4 4 4 5 5 5 5 5 5 5 5 5 6 6 6 7 6 6 6 6 5 2 2 3 4 6 5 5 5 5 6
2 2 4 5 5 5 5 5 4 4 4 4 4 4 4 4 4 4 4 5 5 5 5 5 5 5 6 6 6 6 5 5 3 1 2 2 3 4 4 4 4 4 4
2 2 4 4 4 5 5 5 4 4 4 4 4 4 4 3 3 3 4 4 4 4 4 5 5 5 5 5 5 5 5 3 2 2 2 2 2 3 3 3 3 2 3
3 3 4 4 4 4 4 5 4 4 4 3 3 3 3 3 3 3 3 4 4 3 4 4 4 4 4 4 4 4 3 1 1 1 1 1 2 3 3 2 2 2 2
3 2 3 4 4 4 4 4 4 4 3 3 3 3 3 2 2 3 3 3 3 3 3 3 4 4 4 4 3 3 3 1 1 1 1 1 2 1 2 2 2 2 1
3 2 3 3 3 4 4 4 4 4 4 3 3 3 3 2 2 3 3 3 2 2 3 3 3 3 3 3 3 3 2 1 2 1 1 1 1 1 2 2 2 2 1
3 3 3 3 2 2 2 4 4 4 4 4 3 4 3 2 2 2 2 2 2 2 2 2 2 3 3 3 2 2 1 3 2 1 1 0 1 3 2 2 3 3 3
3 3 3 3 2 2 2 2 2 3 3 2 2 3 2 1 1 2 1 2 1 1 2 2 2 2 2 3 2 2 2 2 2 2 1 1 2 3 3 3 3 4 4
1 2 2 2 2 2 1 1 0 1 1 1 0 0 1 1 0 0 1 2 1 1 2 2 2 3 3 2 2 3 2 3 2 2 1 1 4 4 5 5 4 4 4
0 1 2 2 1 1 1 1 0 1 1 1 0 1 1 1 1 0 1 1 1 2 2 2 3 2 2 2 2 3 3 2 2 2 2 2 5 5 5 5 5 5 5
1 1 2 2 1 1 1 0 1 0 1 1 1 1 1 1 1 1 1 1 1 1 1 2 2 3 3 3 3 3 3 3 2 2 2 3 5 6 6 6 6 6 7
2 2 2 2 2 1 1 1 1 1 1 1 1 1 2 1 1 1 1 1 1 1 1 2 3 3 3 4 3 4 4 4 4 4 2 4 5 6 7 7 7 7 7
3 2 2 2 2 2 1 1 1 1 1 1 1 2 2 2 2 2 2 2 2 2 2 2 3 3 3 3 4 4 4 4 5 4 4 4 5 6 7 7 7 7 7
3 3 2 2 2 2 2 2 1 1 1 1 1 2 2 2 2 2 2 2 2 2 3 3 3 3 3 3 4 4 4 4 5 5 4 4 4 5 6 6 6 6 7
3 3 2 2 2 2 2 2 2 2 2 2 2 2 3 3 3 3 2 2 2 3 3 3 3 3 3 3 3 3 3 4 6 5 5 4 4 3 4 5 5 6 6
3 3 3 2 3 2 2 2 2 2 2 2 2 2 3 3 4 3 2 2 2 2 3 3 3 3 3 3 3 3 3 4 5 5 5 5 4 4 4 3 4 5 6
3 3 3 3 3 2 2 2 2 2 2 2 2 2 3 3 4 4 3 3 2 2 3 3 3 3 3 2 2 3 3 4 4 4 5 4 4 4 5 4 4 4 6
3 3 3 3 3 2 2 2 2 3 3 2 2 3 4 3 4 4 3 3 3 3 3 3 3 3 2 1 2 2 3 3 4 3 4 4 4 4 5 5 4 4 3
3 3 3 3 3 3 3 2 3 3 3 3 3 3 4 4 4 4 4 4 3 3 4 4 3 2 2 2 1 1 2 3 2 3 4 4 4 4 4 5 5 5 5
3 3 3 3 4 4 3 2 2 2 3 3 3 3 4 4 4 4 5 4 4 4 4 4 4 4 3 3 2 2 2 3 2 3 5 4 4 4 4 5 6 6 6
4 3 4 4 4 4 3 3 4 3 4 4 4 3 4 4 4 4 4 5 4 4 5 4 4 4 4 3 3 3 3 3 3 3 3 4 5 5 5 5 6 6 6
3 3 3 4 4 4 4 4 4 4 4 4 4 4 4 4 4 4 4 4 5 4 5 5 5 5 4 5 4 3 3 3 4 4 5 4 5 5 5 6 5 5 6
3 3 3 4 4 4 4 5 5 5 5 5 5 5 4 3 3 4 4 4 5 5 5 6 6 6 6 6 5 4 3 4 4 4 5 5 5 4 5 5 5 5 5
Wind_Direction
98 88 74 70 80 89 100 111 116 120 117 113 113 115 118 114 109 106 105 98 99 103 107 109 112 108 104 104 103 100 98 95 90 87 86 86 89 91 90 89 93 92 86
71 117 94 81 82 88 99 114 114 119 119 120 117 118 121 120 115 108 106 100 100 102 103 105 105 102 99 99 98 97 95 90 86 85 87 96 94 91 92 85 70 82 88
62 95 117 85 77 81 89 111 114 114 113 117 118 118 118 120 116 109 107 103 104 104 100 101 101 100 96 94 96 96 95 92 89 88 113 111 104 98 94 89 91 92 91
65 90 91 80 74 77 83 97 111 115 110 109 109 109 108 110 112 112 110 105 104 104 100 99 100 100 98 95 98 99 98 93 91 123 141 104 104 97 96 91 93 93 91
77 87 84 70 70 72 78 89 97 107 111 108 109 103 103 110 110 113 113 107 103 105 103 103 103 104 105 103 100 99 100 96 99 172 105 103 103 100 102 100 95 94 94
76 78 82 63 74 74 72 81 91 90 101 108 106 101 97 110 118 117 112 108 106 109 111 111 111 110 107 103 103 101 97 98 177 131 114 114 114 117 122 115 107 102 100
68 57 74 51 71 80 75 74 81 88 86 92 98 98 93 92 109 116 116 113 110 112 116 123 124 121 118 109 102 100 97 72 226 133 133 125 97 106 122 119 127 111 114
62 55 70 54 52 73 79 75 74 74 77 79 81 93 93 84 95 116 118 119 121 124 125 130 131 132 128 123 113 102 90 329 243 186 176 145 93 138 148 143 138 135 142
58 57 57 68 56 54 71 70 70 67 63 66 70 77 85 80 91 116 113 117 127 141 138 138 145 140 140 135 121 108 94 308 259 212 218 193 117 214 198 183 180 182 196
58 50 48 49 48 50 75 75 68 65 63 60 60 54 60 89 102 108 121 111 134 153 153 148 147 151 144 132 120 110 122 241 243 234 235 115 243 243 231 226 225 219 221
45 37 41 42 33 30 35 64 85 82 72 70 77 58 60 163 162 154 113 91 129 168 173 166 162 156 153 146 129 121 201 236 246 250 245 42 255 250 246 243 243 240 236
23 17 18 30 23 25 21 41 209 171 150 159 127 100 203 212 169 243 129 97 126 173 193 186 179 174 185 180 165 190 230 250 254 245 231 244 257 256 251 245 243 247 246
305 351 0 359 358 4 9 357 309 253 207 203 211 281 262 222 195 217 199 173 186 191 200 200 198 200 208 206 214 227 246 251 254 252 227 234 255 258 258 255 251 250 249
259 311 343 348 326 318 329 311 287 276 249 224 230 262 269 262 242 215 222 256 236 228 228 229 231 223 224 218 225 234 241 248 253 250 230 242 257 260 260 263 261 255 253
257 285 318 328 322 301 295 285 282 264 278 260 245 248 263 252 258 244 229 238 246 255 238 249 240 231 233 233 235 239 243 248 252 249 233 242 260 262 260 261 258 261 259
255 267 283 293 309 292 269 264 266 270 262 276 263 251 252 257 254 256 240 242 248 251 250 252 256 240 235 239 243 247 251 252 249 249 248 230 243 260 261 260 258 262 261
253 265 277 287 291 292 273 268 268 268 258 256 270 269 251 254 255 256 249 243 254 260 257 249 250 244 236 236 240 245 251 254 256 251 248 245 235 241 254 259 259 260 260
252 253 267 277 277 286 293 275 270 274 271 257 252 264 262 251 253 249 247 250 256 252 247 246 245 246 239 236 242 246 250 251 254 253 248 246 246 242 239 251 261 260 262
249 245 247 259 266 272 283 277 269 273 272 265 255 259 263 258 251 248 245 250 256 251 247 243 246 248 251 247 248 253 256 254 255 252 250 248 247 248 249 235 253 264 267
252 253 251 255 267 273 270 272 258 250 258 266 262 260 260 256 250 245 242 245 248 250 247 245 251 250 255 260 260 262 261 257 251 248 251 249 244 243 249 249 247 249 260
255 257 257 259 266 269 271 272 262 257 259 259 257 263 261 262 256 242 244 240 238 245 249 246 245 244 251 264 275 284 273 258 249 248 252 252 246 249 250 251 254 258 256
253 259 262 258 261 264 269 272 269 271 266 272 269 257 254 257 262 250 241 240 238 244 248 244 239 239 259 241 269 288 269 256 237 258 256 259 256 253 256 258 253 254 262
261 264 269 267 262 263 269 271 272 258 257 258 261 259 255 254 251 259 256 245 241 239 240 241 232 233 246 244 239 241 248 250 284 241 249 250 255 256 258 261 258 254 255
268 268 269 270 266 263 258 255 255 257 258 265 266 265 267 258 254 253 262 253 243 242 242 241 237 237 236 241 242 248 263 273 252 256 251 252 261 261 262 262 261 260 258
279 277 276 272 270 268 263 259 259 262 264 265 266 267 269 262 254 252 255 260 249 244 244 244 242 240 234 237 242 249 253 258 256 256 268 268 264 260 265 265 262 261 260
287 285 282 276 272 268 261 257 257 260 266 264 264 265 266 268 264 256 253 258 258 248 246 245 241 241 240 241 241 240 245 244 243 252 266 276 275 272 270 267 262 262 261